{"data":{"norad_id":41038,"intl_designator":"2015-069A","name":"YAOGAN-29","alt_names":[],"object_type":"PAYLOAD","status":"ACTIVE","operator":null,"country":"PRC","launch_date":"2015-11-26","launch_site_code":"TAISC","launch_vehicle":null,"mission":null,"orbit_class":"UNKNOWN","rcs_meters":5.0279,"size_class":null,"mass_kg":null,"dimensions":null,"purposes":["earth_obs"],"wikipedia_slug":null,"has_3d_model":false,"image_url":null,"decayed_at":null,"tle_current":{"epoch":"2026-05-25T04:06:17.580384Z","epoch_age_seconds":61106,"freshness":"FRESH","line1":"1 41038U 15069A   26145.17103681  .00000679  00000+0  90066-4 0  9998","line2":"2 41038  98.0044 173.7672 0002994  93.0858 267.0698 14.83063374567211","mean_motion":14.83063374,"eccentricity":0.0002994,"inclination_deg":98.0044,"raan_deg":173.7672,"arg_perigee_deg":93.0858,"mean_anomaly_deg":267.0698,"bstar":9.0066e-5,"rev_number":56721,"period_min":97.096322736104,"perigee_km":617.57605615936,"apogee_km":621.76634370948,"semimajor_km":6997.8081999344,"source":"CELESTRAK","updated_at":"2026-05-25T13:38:12.790030Z"}}}